• Join FlightAware (Why Join?)
  • Login
  • US Flag 
Gobble Gobble! 
08:42PM EST


 

Airport Tracker/Info


-or-


 

Live Flight TrackerFlight Track Log ✈ EJA929 ✈ 29-Nov-2013 ✈ KSBA - KBFI

Flight Track Log - Related Links

Times and Time Zones

All times are in EST time to prevent confusion due to time zone crossing. See the EJA929 flight status page for this flight to view local times or setup timezone preferences in your user account.

Time Position Orientation Groundspeed Altitude Reporting Facility
EST Latitude Longitude Course Direction KTS MPH feet Rate Location/Type
11:27AM 34.4258 -119.8694 345° North 179 206 800  Level Los Angeles Center
11:28AM 34.4289 -119.9111 275° West 199 229 2,900 3,000 Climbing Los Angeles Center
11:29AM 34.4222 -119.9800 263° West 265 305 4,800 2,940 Climbing Los Angeles Center
11:29AM 34.4239 -120.0031 275° West 268 308 5,900 3,060 Climbing Los Angeles Center
11:30AM 34.4483 -120.0900 289° West 316 364 8,900 2,580 Climbing Los Angeles Center
11:31AM 34.5267 -120.1350 335° Northwest 310 357 11,300 1,740 Climbing Los Angeles Center
11:32AM 34.6322 -120.1756 342° North 369 425 12,500 1,200 Climbing Los Angeles Center
11:33AM 35.1388 -119.9528 345° North  Level Estimated
11:33AM 34.7397 -120.1942 352° North 394 453 13,800  Level Los Angeles Center
11:34AM 34.8481 -120.2147 351° North 396 456 15,800 1,860 Climbing Los Angeles Center
11:35AM 34.9542 -120.2339 352° North 389 448 17,700 1,800 Climbing Los Angeles Center
11:36AM 35.0589 -120.2536 351° North 382 440 19,500 2,040 Climbing Los Angeles Center
11:37AM 35.1853 -120.2769 351° North 384 442 21,900 2,100 Climbing Los Angeles Center
11:38AM 35.2939 -120.2975 351° North 393 452 23,900 1,680 Climbing Los Angeles Center
11:39AM 35.4081 -120.3208 351° North 404 465 25,400 1,440 Climbing Los Angeles Center
11:40AM 35.5264 -120.3428 351° North 425 489 26,900 1,500 Climbing Los Angeles Center
11:41AM 35.6483 -120.3667 351° North 441 507 28,500 1,740 Climbing Los Angeles Center
11:42AM 35.7322 -120.3822 351° North 461 531 29,800 2,160 Climbing Oakland Center
11:43AM 35.8639 -120.4078 351° North 478 550 32,100 1,860 Climbing Oakland Center
11:44AM 35.9950 -120.4322 351° North 479 551 33,700 900 Climbing Oakland Center
11:45AM 36.1314 -120.4583 351° North 496 571 34,000 120 Climbing Oakland Center
11:46AM 36.2981 -120.4908 351° North 505 581 34,000 660 Level Oakland Center
11:47AM 36.4336 -120.5186 351° North 498 573 35,400 1,380 Climbing Oakland Center
11:48AM 36.5697 -120.5444 351° North 495 570 36,900 1,440 Climbing Oakland Center
11:49AM 36.7025 -120.5692 352° North 483 556 38,400 1,440 Climbing Oakland Center
11:50AM 36.8311 -120.5947 351° North 477 549 39,900 1,320 Climbing Oakland Center
11:51AM 36.9606 -120.6219 350° North 471 542 41,100 1,020 Climbing Oakland Center
11:52AM 37.0908 -120.6461 352° North 474 545 42,000 780 Climbing Oakland Center
11:53AM 37.2228 -120.6706 352° North 477 549 42,800 480 Climbing Oakland Center
11:54AM 37.3550 -120.6983 351° North 481 554 43,000 60 Climbing Oakland Center
11:55AM 37.4931 -120.7253 351° North 498 573 43,000  Level Oakland Center
11:56AM 37.6300 -120.7522 351° North 499 574 43,000  Level Oakland Center
11:57AM 37.7969 -120.7858 351° North 506 582 43,000  Level Oakland Center
11:58AM 37.9347 -120.8128 351° North 502 578 43,000  Level Oakland Center
11:59AM 38.0731 -120.8417 351° North 504 580 43,000  Level Oakland Center
12:00PM 38.2114 -120.8692 351° North 507 583 43,000  Level Oakland Center
12:01PM 38.3503 -120.8975 351° North 508 585 43,000  Level Oakland Center
12:02PM 38.4867 -120.9258 351° North 504 580 43,000  Level Oakland Center
12:03PM 38.6186 -120.9514 351° North 488 562 43,000  Level Oakland Center
12:04PM 38.7497 -120.9783 351° North 485 558 43,000  Level Oakland Center
12:05PM 38.9111 -121.0122 351° North 493 567 43,000  Level Oakland Center
12:06PM 39.0481 -121.0400 351° North 497 572 43,000  Level Oakland Center
12:07PM 39.1844 -121.0683 351° North 498 573 43,000  Level Oakland Center
12:08PM 39.3211 -121.0967 351° North 498 573 43,000  Level Oakland Center
12:09PM 39.4567 -121.1264 350° North 496 571 43,000  Level Oakland Center
12:10PM 39.5922 -121.1539 351° North 494 568 43,000  Level Oakland Center
12:11PM 39.7403 -121.1853 351° North 486 559 43,000  Level Oakland Center
12:12PM 39.8742 -121.2142 351° North 488 562 43,000  Level Oakland Center
12:13PM 40.0067 -121.2414 351° North 486 559 43,000  Level Oakland Center
12:14PM 40.1392 -121.2703 351° North 485 558 43,000  Level Oakland Center
12:15PM 40.2714 -121.2992 351° North 485 558 43,000  Level Oakland Center
12:16PM 40.4033 -121.3272 351° North 484 557 43,000  Level Oakland Center
12:17PM 40.5356 -121.3550 351° North 484 557 43,000  Level Oakland Center
12:18PM 40.6731 -121.3847 351° North 487 560 43,000  Level Oakland Center
12:19PM 40.8058 -121.4158 350° North 484 557 43,000  Level Oakland Center
12:20PM 40.9375 -121.4467 350° North 492 566 43,000  Level Oakland Center
12:21PM 41.0992 -121.4839 350° North 496 571 43,000  Level Oakland Center
12:22PM 41.2081 -121.5042 352° North 482 555 43,000  Level Oakland Center
12:24PM 41.3733 -121.5436 350° North 491 565 43,000  Level Seattle Center
12:25PM 41.5069 -121.5742 350° North 488 562 43,000  Level Seattle Center
12:26PM 41.6411 -121.6044 350° North 491 565 43,000  Level Seattle Center
12:27PM 41.7747 -121.6344 350° North 490 564 43,000  Level Seattle Center
12:28PM 41.9344 -121.6697 351° North 491 565 43,000  Level Seattle Center
12:29PM 42.0653 -121.6986 351° North 486 559 43,000  Level Seattle Center
12:30PM 42.1939 -121.7281 350° North 481 554 43,000  Level Seattle Center
12:31PM 42.3236 -121.7581 350° North 480 552 43,000  Level Seattle Center
12:32PM 42.4558 -121.7881 350° North 480 552 43,000  Level Seattle Center
12:33PM 42.5872 -121.8186 350° North 488 562 43,000  Level Seattle Center
12:34PM 42.7211 -121.8486 351° North 488 562 43,000  Level Seattle Center
12:35PM 42.8558 -121.8825 350° North 494 568 43,000  Level Seattle Center
12:36PM 42.9931 -121.9136 351° North 500 575 43,000  Level Seattle Center
12:37PM 43.1272 -121.9447 350° North 492 566 43,000  Level Seattle Center
12:38PM 43.2853 -121.9819 350° North 498 573 43,000  Level Seattle Center
12:39PM 43.4186 -122.0158 350° North 491 565 43,000  Level Seattle Center
12:40PM 43.5542 -122.0461 351° North 493 567 43,000 -300 Level Seattle Center
12:41PM 43.6850 -122.0775 350° North 482 555 42,400 -780 Descending Seattle Center
12:42PM 43.8119 -122.1089 350° North 467 537 41,500 -1,020 Descending Seattle Center
12:43PM 43.9408 -122.1386 351° North 470 541 40,400 -780 Descending Seattle Center
12:44PM 44.0656 -122.1694 350° North 460 529 40,000 -240 Descending Seattle Center
12:45PM 44.1925 -122.1994 350° North 463 533 40,000  Level Seattle Center
12:46PM 44.3175 -122.2306 350° North 461 531 40,000  Level Seattle Center
12:47PM 44.4403 -122.2625 349° North 455 524 40,000  Level Seattle Center
12:48PM 44.5631 -122.2925 350° North 452 520 40,000  Level Seattle Center
12:49PM 44.6867 -122.3233 350° North 452 520 40,000  Level Seattle Center
12:50PM 44.8339 -122.3600 350° North 450 518 40,000  Level Seattle Center
12:51PM 44.9453 -122.3894 349° North 450 518 40,000  Level Seattle Center
12:52PM 45.0672 -122.4186 350° North 449 517 40,000  Level Seattle Center
12:53PM 45.1897 -122.4500 350° North 450 518 40,000  Level Seattle Center
12:54PM 45.3119 -122.4806 350° North 449 517 40,000  Level Seattle Center
12:55PM 45.4289 -122.5097 350° North 436 502 40,000  Level Seattle Center
12:56PM 45.5458 -122.5403 350° North 431 496 40,000  Level Seattle Center
12:57PM 45.6667 -122.5700 350° North 440 506 40,000  Level Seattle Center
12:58PM 45.7869 -122.6022 349° North 441 507 40,000 -720 Level Seattle Center
12:59PM 45.9158 -122.6322 351° North 386 444 38,600 -1,680 Descending Seattle Center
01:00PM 46.0203 -122.6597 350° North 383 441 36,600 -1,980 Descending Seattle Center
01:01PM 46.1242 -122.6856 350° North 382 440 34,600 -2,040 Descending Seattle Center
01:02PM 46.2256 -122.7100 351° North 403 464 32,500 -2,340 Descending Seattle Center
01:03PM 46.3469 -122.6983 North 436 502 30,000 -2,760 Descending Seattle Center
01:04PM 46.4928 -122.6786 North 439 505 27,000 -2,700 Descending Seattle Center
01:05PM 46.6014 -122.6658 North 432 497 24,800 -2,400 Descending Seattle Center
01:05PM 46.6111 -122.6625 13° North 429 494 24,600 -2,220 Descending Seattle Center
01:06PM 46.7169 -122.6497 North 381 438 22,400 -2,220 Descending Seattle Center
01:07PM 46.7603 -122.6450 North 352 405 21,500 -1,980 Descending Seattle Center
01:07PM 46.8158 -122.6369 North 358 412 20,400 -2,100 Descending Seattle Center
01:08PM 46.8589 -122.6308 North 346 398 19,400 -1,980 Descending Seattle Center
01:08PM 46.9117 -122.6225 North 348 400 18,400 -1,920 Descending Seattle Center
01:09PM 46.9536 -122.6186 North 341 392 17,500 -2,040 Descending Seattle Center
01:09PM 47.0083 -122.6094 North 336 387 16,400 -1,920 Descending Seattle Center
01:10PM 47.0369 -122.6061 North 329 379 15,800 -1,800 Descending Seattle Center
01:10PM 47.0964 -122.5975 North 316 364 14,600 -1,800 Descending Seattle Center
01:11PM 47.1222 -122.5925 North 307 353 14,000 -1,920 Descending Seattle Center
01:11PM 47.1781 -122.5617 21° North 313 360 12,700 -1,920 Descending Seattle Center
01:12PM 47.2017 -122.5461 24° Northeast 308 354 12,100 -1,980 Descending Seattle Center
01:12PM 47.2550 -122.5117 24° Northeast 306 352 10,700 -2,100 Descending Seattle Center
01:12PM 47.2744 -122.5000 22° Northeast 307 353 10,200 -2,100 Descending Seattle Center
01:13PM 47.3322 -122.4708 19° North 288 331 8,600 -1,920 Descending Seattle Center
01:14PM 47.3486 -122.4692 North 270 311 8,300 -600 Descending Seattle Center
01:14PM 47.4003 -122.4661 North 244 281 8,000 -540 Descending Seattle Center
01:15PM 47.4211 -122.4656 North 225 259 7,800 -1,200 Descending Seattle Center
01:15PM 47.4728 -122.4611 North 243 280 6,800 -1,200 Descending Seattle Center
01:16PM 47.4889 -122.4611 360° North 237 273 6,600 -1,320 Descending Seattle Center
01:16PM 47.5342 -122.4583 North 217 250 5,500 -1,500 Descending Seattle Center
01:17PM 47.5569 -122.4664 347° North 213 245 4,800 -1,680 Descending Seattle Center
01:17PM 47.5881 -122.4900 333° Northwest 212 244 3,800 -1,680 Descending Seattle Center
01:18PM 47.6058 -122.5019 336° Northwest 209 241 3,300 -1,620 Descending Seattle Center
01:18PM 47.6383 -122.5319 328° Northwest 209 241 2,200 -1,200 Descending Seattle Center
01:19PM 47.6519 -122.5358 349° North 201 231 2,200  Level Seattle Center
01:19PM 47.6758 -122.4853 55° Northeast 201 231 2,200  Level Seattle Center
01:20PM 47.6775 -122.4692 81° East 191 220 2,200  Level Seattle Center
01:20PM 47.6556 -122.4131 120° Southeast 203 234 2,200  Level Seattle Center
01:21PM 47.6450 -122.4014 143° Southeast 207 238 2,200 -540 Level Seattle Center
01:21PM 47.6078 -122.3700 150° Southeast 199 229 1,700 -780 Descending Seattle Center
01:22PM 47.6000 -122.3639 152° Southeast 201 231 1,500 -960 Descending Seattle Center
01:23PM 47.5656 -122.3336 149° Southeast 136 157 600 -780 Descending Seattle Center
01:23PM 47.5406 -122.3119 150° Southeast 123 142 100 -600 Descending Seattle Center